Regional Weather Roundup
Issued by NWS

Home | Current Version | Previous Version | Text Only | Print | Product List | Glossary Off
Versions: 1 2 3 4 5 6 7 8 9 10 11 12 13 14 15 16 17 18 19 20 21 22 23 24 25 26 27 28 29 30 31 32 33 34 35 36 37 38 39 40 41 42 43 44 45 46 47 48 49 50

000
ASUS43 KBIS 271210
RWRND

NORTH DAKOTA REGIONAL WEATHER ROUNDUP
NATIONAL WEATHER SERVICE BISMARCK ND
700 AM CDT MON MAR 27 2017

NOTE: "FAIR" INDICATES FEW OR NO CLOUDS BELOW 12,000 FEET WITH NO
SIGNIFICANT WEATHER AND/OR OBSTRUCTIONS TO VISIBILITY.


NDZ001>003-009>011-017-271300-
NORTHWEST NORTH DAKOTA

CITY           SKY/WX    TMP DP  RH WIND       PRES   REMARKS
WILLISTON      FAIR      31  27  85 CALM      29.88R
6HR MIN TEMP:  31; 6HR MAX TEMP:  36; 6HR PCP: TRACE;

MINOT          FAIR      33  30  88 CALM      29.87R
MINOT AFB      CLEAR     31  30  93 N5        29.88R
$$

NDZ018>021-031>035-040>046-271300-
SOUTHWEST NORTH DAKOTA

CITY           SKY/WX    TMP DP  RH WIND       PRES   REMARKS
BISMARCK       MOCLDY    33  30  88 E3        29.91S
6HR MIN TEMP:  32; 6HR MAX TEMP:  39;

DICKINSON      FAIR      33  31  92 S10       29.86R
GARRISON         N/A     31  29  92 CALM      29.87R
6HR MIN TEMP:  30; 6HR MAX TEMP:  45;

HETTINGER ARPT PTCLDY    26  24  92 CALM      29.90S
$$

NDZ004>008-012>016-024-026-027-054-271300-
NORTHEAST NORTH DAKOTA

CITY           SKY/WX    TMP DP  RH WIND       PRES   REMARKS
GRAND FORKS    FOG       37  37 100 CALM      29.97R VSB 1/4
GRND FRKS AFB  FOG       35  35 100 E5        29.97S VSB 3/4
DEVILS LAKE    FAIR      31  30  96 SE8       29.92S
$$

NDZ022-023-025-028>030-036>039-047>053-271300-
SOUTHEAST NORTH DAKOTA

CITY           SKY/WX    TMP DP  RH WIND       PRES   REMARKS
FARGO          FOG       32  31  96 E6        29.96S VSB 1/4
6HR MIN TEMP:  31; 6HR MAX TEMP:  35;

JAMESTOWN      FOG       27  26  96 CALM      29.92S VSB 1/2
$$




USA.gov is the U.S. government's official web portal to all federal, state and local government web resources and services.